Lapse_Rate
-1.3 -1.3 -1.1 -1.1 -1.4 -1.5 -1.0 0.1 1.1 1.2 1.1 1.4 0.4 1.6 1.2 0.9 1.8 1.8 2.1 2.0 2.1 2.4
-0.9 -1.0 -1.0 -0.9 -0.8 0.5 0.6 1.1 1.7 1.4 1.3 1.4 2.1 1.2 1.4 1.5 0.9 1.5 1.8 2.3 2.6 2.8
-0.3 -0.0 -0.0 0.5 -0.0 0.5 1.1 0.8 1.4 1.2 1.7 1.9 1.2 1.4 1.2 0.2 0.0 1.7 1.4 1.9 2.8 2.7
0.9 0.8 0.6 0.4 0.8 1.4 1.5 1.5 1.6 1.8 1.9 1.3 1.8 0.9 0.3 0.6 1.3 1.3 1.5 2.1 2.8 3.0
1.8 1.9 1.8 1.7 1.4 1.6 2.0 1.7 1.4 1.7 1.1 1.7 1.6 0.7 1.0 1.5 1.6 1.7 1.6 1.9 1.9 2.2
3.2 3.3 3.0 2.8 2.7 2.2 2.8 2.3 2.1 2.0 1.9 2.0 1.5 0.8 1.5 2.1 1.9 1.3 1.3 1.1 0.9 1.3
4.2 3.7 3.8 4.0 3.7 3.7 3.4 3.2 3.2 3.1 3.4 2.8 2.1 2.5 3.1 2.7 2.2 1.9 2.2 1.9 2.1 2.3
3.9 4.6 4.5 3.9 4.1 4.0 4.0 2.9 3.2 3.5 2.4 2.1 1.8 3.1 2.6 2.9 2.6 2.2 1.9 0.6 -0.1 -1.0
3.4 3.6 4.8 3.8 3.0 2.2 2.2 2.1 3.1 2.2 1.9 1.1 3.2 3.0 2.5 2.0 1.4 2.1 0.8 -0.9 -1.7 -1.2
4.6 4.3 3.5 3.2 3.1 2.5 2.5 2.5 2.1 1.7 1.9 1.6 2.2 1.9 1.6 1.7 1.4 1.2 0.2 -0.6 -1.4 -0.4
4.6 3.8 3.9 3.8 3.5 3.1 2.7 1.8 1.7 2.2 1.1 1.2 0.4 1.8 1.7 1.7 1.2 1.1 0.4 -1.2 -1.8 -1.7
4.5 3.9 4.7 3.6 1.8 2.1 3.0 1.7 0.0 0.3 0.2 -0.4 -0.1 1.1 0.2 0.7 0.6 0.9 1.1 -0.1 -1.9 -2.1
3.7 3.5 2.8 3.0 1.9 1.2 1.3 -0.0 0.5 0.2 -0.4 -0.2 -0.2 -0.0 0.1 0.0 0.2 0.2 -0.2 -0.7 -1.3 0.4
4.9 4.1 3.2 2.0 1.5 1.2 0.9 0.2 -0.1 -0.2 -1.0 -0.2 -0.4 -0.2 0.5 0.4 0.1 0.1 -0.5 -0.8 -2.0 -2.5
Wind_Speed
6 4 6 7 8 8 6 6 6 6 6 4 11 7 9 8 4 5 6 8 5 5
7 8 7 8 8 5 8 7 7 7 8 8 4 9 4 5 7 4 4 5 6 4
8 8 9 9 9 10 9 10 9 10 8 8 7 6 7 6 6 5 3 3 5 3
6 8 9 10 10 11 11 12 11 10 9 10 9 7 7 7 7 7 6 5 5 5
8 9 9 9 10 10 10 9 10 10 9 8 7 7 8 8 7 8 7 6 6 5
8 8 9 10 9 9 10 10 9 10 10 11 10 9 7 8 8 7 7 7 7 6
10 10 8 7 8 9 9 9 8 9 9 8 9 9 8 9 8 7 7 7 6 6
11 11 12 12 11 8 10 8 8 8 6 6 7 6 7 9 8 7 7 7 8 6
16 14 13 11 11 11 8 9 8 7 9 8 5 10 10 9 8 8 8 7 6 5
11 12 11 10 11 12 12 12 13 10 10 9 7 14 17 15 8 8 8 7 7 5
11 11 10 12 12 12 12 12 11 12 12 11 7 17 17 14 7 7 8 8 9 8
13 13 15 15 12 13 13 11 9 8 11 12 9 19 21 14 9 8 7 8 8 8
13 14 16 16 15 11 11 11 10 9 10 13 12 20 23 17 8 9 6 5 5 16
11 16 18 17 13 12 10 12 13 13 10 11 12 13 21 21 9 9 7 8 5 4
Wind_Direction
89 114 138 148 150 146 141 137 145 116 91 42 116 111 131 113 105 116 121 115 103 115
124 127 129 127 127 132 126 133 139 124 125 128 135 128 144 131 127 152 146 141 141 137
136 135 134 141 134 134 128 125 136 130 149 138 133 148 144 138 114 151 115 98 113 88
126 132 134 133 138 141 147 152 155 155 158 142 162 150 128 131 147 136 129 137 149 152
138 146 147 144 145 148 151 155 152 156 145 153 155 142 144 154 151 154 150 156 141 144
154 160 156 152 152 155 157 159 165 159 162 169 163 150 159 155 155 143 141 145 141 137
169 157 160 152 150 166 161 160 182 163 160 158 148 149 152 141 137 137 139 142 146 142
169 164 161 162 159 162 171 152 154 156 130 146 146 157 149 137 143 138 121 103 107 110
176 165 174 161 152 152 159 149 157 156 156 150 169 174 156 135 134 134 123 124 107 94
190 160 164 165 169 171 174 166 171 169 161 166 171 167 144 135 136 138 140 138 124 107
180 158 164 186 185 186 178 175 180 182 166 161 164 152 142 133 130 132 151 149 138 133
183 168 181 185 194 184 179 177 172 180 165 152 158 148 134 131 138 129 138 141 138 135
201 197 187 188 184 196 183 171 158 163 164 163 161 152 149 143 140 135 137 125 136 153
226 206 196 188 181 184 174 161 163 165 159 162 157 164 153 151 152 150 151 156 160 142